Regional Weather Roundup
Issued by NWS

Home | Current Version | Previous Version | Text Only | Print | Product List | Glossary On
Versions: 1 2 3 4 5 6 7 8 9 10 11 12 13 14 15 16 17 18 19 20 21 22 23 24 25 26 27 28 29 30 31 32 33 34 35 36 37 38 39 40 41 42 43 44 45 46 47 48 49 50
000
ASUS43 KMKX 240720
RWRWI

WISCONSIN REGIONAL WEATHER ROUNDUP
NATIONAL WEATHER SERVICE MILWAUKEE/SULLIVAN WI
100 AM CST TUE JAN 24 2017

NOTE: "FAIR" INDICATES FEW OR NO CLOUDS BELOW 12,000 FEET WITH NO
SIGNIFICANT WEATHER AND/OR OBSTRUCTIONS TO VISIBILITY.

WIZ001-002-006>008-014>016-023>028-240800-
NORTHWEST WISCONSIN

CITY           SKY/WX    TMP DP  RH WIND       PRES   REMARKS
SUPERIOR ARPT  CLOUDY    33  32  99 W3        29.84R
ASHLAND        CLOUDY    34  32  92 SW6       29.83R WCI  29
HAYWARD        FOG       33  32  96 S3        29.82S VSB 3/4
SIREN          LGT SNOW  32  32  99 CALM      29.84S
CUMBERLAND     CLOUDY    32  32 100 CALM      29.82S FOG
RICE LAKE      CLOUDY    33  32  96 CALM      29.84S FOG
CHETEK         CLOUDY    32  32  99 CALM      29.84R
LADYSMITH      CLOUDY    33  33  99 SW3       29.83S
EAU CLAIRE     CLOUDY    32  31  96 SW5       29.84R FOG     WCI  27
MENOMONIE        N/A    N/A N/A N/A MISG        N/A
NEW RICHMOND   CLOUDY    32  32 100 NW3       29.84S FOG
OSCEOLA        LGT SNOW  32  32 100 CALM      29.87S
$$

WIZ003>005-009-010-017-018-240800-
NORTH CENTRAL WISCONSIN

CITY           SKY/WX    TMP DP  RH WIND       PRES   REMARKS
MANITOWISH WTR CLOUDY    32  32 100 CALM      29.78S
ARBOR VITAE    FOG       37  36  96 CALM      29.78S VSB 3/4
WOODRUFF       FOG       37  36  96 CALM      29.78S VSB 3/4
RHINELANDER    CLOUDY    35  35 100 CALM      29.78S
EAGLE RIVER    FOG       33  33 100 CALM      29.77S VSB 1/2
LAND O LAKES   FOG       34  34 100 CALM      29.78F VSB 1/2
PHILLIPS       CLOUDY    32  32 100 CALM      29.79S
TOMAHAWK       CLOUDY    33  32  96 CALM      29.79S FOG
MEDFORD        CLOUDY    32  31  98 W5        29.80R WCI  27
MERRILL        CLOUDY    34  34 100 CALM        N/A  FOG
$$

WIZ029-030-035-036-043>047-240800-
CENTRAL WISCONSIN

CITY           SKY/WX    TMP DP  RH WIND       PRES   REMARKS
WAUSAU         CLOUDY    34  34 100 NW3       29.78F
MOSINEE        FOG       32  32 100 NW7       29.80S VSB 3/4 WCI  26
MARSHFIELD     CLOUDY    33  31  92 NW7       29.80R WCI  27
STEVENS POINT  FOG       32  32 100 W5        29.81S VSB 3/4 WCI  27
WAUPACA        CLOUDY    37  36  96 CALM      29.80S FOG
WAUTOMA        CLOUDY    34  33  96 W8        29.82S FOG     WCI  27
WISC RAPIDS    CLOUDY    34  34 100 NW5       29.82S FOG     WCI  30
CAMP DOUGLAS   CLOUDY    33  33  97 CALM      29.83S
$$

WIZ011>013-019>022-031-037>040-048>050-240800-
NORTHEAST WISCONSIN

CITY           SKY/WX    TMP DP  RH WIND       PRES   REMARKS
ANTIGO         CLOUDY    33  33 100 CALM      29.78S FOG
SHAWANO        CLOUDY    36  35  94 CALM      29.79F
OCONTO         CLOUDY    34  33  99 CALM      29.79S VSB 1/2
STURGEON BAY   FOG       32  32 100 CALM      29.79S VSB 1/4
GREEN BAY      CLOUDY    36  35  96 CALM      29.78F
MANITOWOC      CLOUDY    36  34  93 W5        29.79S FOG     WCI  32
APPLETON       CLOUDY    32  32 100 W6        29.77S FOG     WCI  26
CLINTONVILLE   CLOUDY    34  34 100 NW5       29.79S WCI  30
OSHKOSH        CLOUDY    35  33  92 W5        29.79S WCI  31
$$

WIZ032>034-041-042-053>061-240800-
SOUTHWEST WISCONSIN

CITY           SKY/WX    TMP DP  RH WIND       PRES   REMARKS
LA CROSSE      CLOUDY    35  32  88 CALM      29.85F
SPARTA         CLOUDY    32  32 100 CALM      29.85S FOG
VIROQUA        CLOUDY    32  32 100 CALM      29.83S VSB 3/4
BOSCOBEL       CLOUDY    34  32  92 CALM      29.86S
PRAIRIE DU CHI CLOUDY    33  31  93 CALM      29.86R
PLATTEVILLE    CLOUDY    34  33  96 CALM      29.85S
$$

WIZ056-057-062-063-064-067-068-240800-
SOUTH CENTRAL WISCONSIN

CITY           SKY/WX    TMP DP  RH WIND       PRES   REMARKS
REEDSBURG      CLOUDY    34  33  96 W5        29.83F WCI  30
BARABOO/DELLS  CLOUDY    33  32  94 W5        29.82S WCI  29
LONE ROCK      CLOUDY    35  31  85 W3        29.85S
MINERAL POINT  CLOUDY    34  34 100 CALM      29.82F
MADISON        CLOUDY    35  32  88 NW5       29.83S WCI  31
MIDDLETON      CLOUDY    36  36 100 NW5       29.83F WCI  32
WATERTOWN      CLOUDY    34  34 100 NW5       29.81S FOG     WCI  30
MONROE         CLOUDY    34  32  93 CALM      29.82F
JANESVILLE     CLOUDY    36  36 100 NW3       29.83S
$$

WIZ051-052-058>065-066-070>072-240800-
SOUTHEAST WISCONSIN

CITY           SKY/WX    TMP DP  RH WIND       PRES   REMARKS
MILWAUKEE      CLOUDY    39  34  82 W6        29.79F WCI  35
WAUKESHA       CLOUDY    34  32  93 W6        29.81S FOG     WCI  29
MILWAUKEE/TIMM CLOUDY    36  32  87 W5        29.80S WCI  32
RACINE         CLOUDY    37  33  85 W5        29.81S WCI  33
KENOSHA        CLOUDY    37  34  89 W7        29.80R WCI  32
FOND DU LAC    CLOUDY    35  32  88 W6        29.80R WCI  30
SHEBOYGAN      CLOUDY    34  32  92 W3        29.78F
WEST BEND      CLOUDY    34  34 100 W5        29.79S WCI  30
JUNEAU         FOG       33  33  99 W3        29.82R VSB 1/4
$$

LSZ147-162-240800-
LAKE SUPERIOR

STATION/POSITION TIME  TEMP    WIND        PRES    WAVE
                       AIR SEA DIR/SP/G            HT/PER
                 (UTC) (F)     (DEG/KT/KT) (MB)    (FT/S)
DEVILS ISLAND    0700   35     260/  8/  9 1010.3S
PORT WING        0630   34     210/  3/  5 1010.2S
SAXON HARBOR     0630   34     190/  3/  5 1009.5S
$$

LMZ867-665-643>646-240800-
LAKE MICHIGAN

STATION/POSITION TIME  TEMP    WIND        PRES    WAVE
                       AIR SEA DIR/SP/G            HT/PER
                 (UTC) (F)     (DEG/KT/KT) (MB)    (FT/S)
NORTHPORT PIER   0640   33     300/  3/  5 1008.5F
SISTER BAY       0620   32        CALM       N/A
KEWAUNEE LAKESHO 0654   35     300/  1/  3 1008.1F
SHEBOYGAN LAKESH 0700   36     290/  6/  7 1008.8F
PORT WASHINGTON  0640   37     300/  4/  5 1009.8F
KENOSHA   LAKESH 0700   38     280/  5/  7 1009.5
$$

TC  - TEMPERATURE IN CELSIUS
VSB - VISIBILITY IN STATUTE MILES
WCI - WIND CHILL INDEX
HX  - HEAT INDEX




USA.gov is the U.S. government's official web portal to all federal, state and local government web resources and services.